Blackwell, OK

7:57 PM CST on November 18, 2017 (GMT -0600)
Blackwell

Weather History for KBKN - October, 2012

Change the Weather History Date:

Tuesday, October 23, 2012

  Actual Average (KPNC) Record (KPNC)
Temperature  
Mean Temperature 75 °F -  
Max Temperature 86 °F 72 °F 87 °F (1973)
Min Temperature 64 °F 49 °F 28 °F (2006)
Cooling Degree Days 10    
Growing Degree Days 25 (Base 50)    
Moisture  
Dew Point 64 °F    
Average Humidity 69    
Maximum Humidity 94    
Minimum Humidity 48    
Precipitation  
Precipitation 0.00 in - - ()
Sea Level Pressure  
Sea Level Pressure 29.76 in    
Wind  
Wind Speed 18 mph (South)    
Max Wind Speed 34 mph    
Max Gust Speed 46 mph    
Visibility 10 miles    
Events      
Averages and records for this station are not official NWS values.
T = Trace of Precipitation, MM = Missing Value Source: NWS Daily Summary

Daily Weather History Graph

Daily Weather History Graph

Search for Another Location

Airport or City:

Trip Planner

Search our weather history database for the weather conditions in past years. The results will help you decide how hot, cold, wet, or windy it might be!

Date:

Astronomy

Oct. 23, 2012 Rise Set
Actual Time 7:44 AM CDT 6:41 PM CDT
Civil Twilight 7:18 AM CDT 7:08 PM CDT
Nautical Twilight 6:48 AM CDT 7:38 PM CDT
Astronomical Twilight 6:18 AM CDT 8:08 PM CDT
Moon 3:18 PM CDT (10/23) 1:47 AM CDT (10/23)
Length of Visible Light 11h 49m
Length of Day
10h 57m
Waxing Gibbous, 67% of the Moon is Illuminated
Oct 23
Waxing Gibbous
Oct 29
Full
Nov 6
Last Quarter
Nov 13
New
Nov 20
First Quarter

Hourly Weather History & Observations

Time (CDT) Temp. Heat Index Dew Point Humidity Pressure Visibility Wind Dir Wind Speed Gust Speed Precip Events Conditions
12:15 AM 66.2 °F - 59.0 °F 78% 29.83 in 10.0 mi SSE 11.5 mph - N/A   Overcast
12:35 AM 66.2 °F - 59.0 °F 78% 29.83 in 10.0 mi SSE 10.4 mph - N/A   Overcast
12:55 AM 64.4 °F - 59.0 °F 83% 29.82 in 10.0 mi SSE 9.2 mph - N/A   Overcast
1:35 AM 64.4 °F - 59.0 °F 83% 29.82 in 10.0 mi SSE 8.1 mph - N/A   Overcast
1:55 AM 64.4 °F - 59.0 °F 83% 29.81 in 10.0 mi SSE 9.2 mph - N/A   Overcast
2:15 AM 64.4 °F - 59.0 °F 83% 29.80 in 10.0 mi SSE 10.4 mph - N/A   Overcast
2:55 AM 64.4 °F - 60.8 °F 88% 29.79 in 10.0 mi SSE 11.5 mph - N/A   Overcast
3:15 AM 64.4 °F - 62.6 °F 94% 29.79 in 10.0 mi SSE 11.5 mph - N/A   Overcast
3:55 AM 66.2 °F - 62.6 °F 88% 29.77 in 10.0 mi South 17.3 mph 21.9 mph N/A   Mostly Cloudy
4:15 AM 66.2 °F - 64.4 °F 94% 29.77 in 10.0 mi South 16.1 mph 21.9 mph N/A   Mostly Cloudy
5:15 AM 68.0 °F - 64.4 °F 88% 29.78 in 10.0 mi South 17.3 mph - N/A   Overcast
5:35 AM 68.0 °F - 64.4 °F 88% 29.78 in 10.0 mi South 16.1 mph - N/A   Overcast
5:55 AM 68.0 °F - 64.4 °F 88% 29.78 in 10.0 mi South 18.4 mph 25.3 mph N/A   Overcast
6:35 AM 68.0 °F - 64.4 °F 88% 29.78 in 10.0 mi South 17.3 mph 24.2 mph N/A   Overcast
6:55 AM 68.0 °F - 64.4 °F 88% 29.78 in 10.0 mi South 13.8 mph 19.6 mph N/A   Overcast
7:35 AM 68.0 °F - 64.4 °F 88% 29.78 in 10.0 mi South 16.1 mph - N/A   Partly Cloudy
7:55 AM 68.0 °F - 64.4 °F 88% 29.78 in 10.0 mi South 17.3 mph - N/A   Clear
8:15 AM 68.0 °F - 66.2 °F 94% 29.78 in 10.0 mi South 18.4 mph 23.0 mph N/A   Clear
8:35 AM 68.0 °F - 66.2 °F 94% 29.79 in 10.0 mi South 18.4 mph 24.2 mph N/A   Clear
9:15 AM 71.6 °F - 66.2 °F 83% 29.79 in 1.5 mi South 23.0 mph 32.2 mph N/A   Haze
10:15 AM 75.2 °F - 66.2 °F 73% 29.78 in 8.0 mi South 28.8 mph 38.0 mph N/A   Clear
10:55 AM 78.8 °F - 66.2 °F 65% 29.78 in 7.0 mi South 32.2 mph 42.6 mph N/A   Clear
11:15 AM 80.6 °F 82.7 °F 66.2 °F 61% 29.77 in 6.0 mi SSW 31.1 mph 40.3 mph N/A   Haze
11:35 AM 82.4 °F 84.6 °F 66.2 °F 58% 29.77 in 10.0 mi SSW 33.4 mph 46.0 mph N/A   Clear
11:55 AM 82.4 °F 83.9 °F 64.4 °F 54% 29.76 in 8.0 mi SSW 33.4 mph 41.4 mph N/A   Clear
12:15 PM 82.4 °F 83.9 °F 64.4 °F 54% 29.76 in 9.0 mi SSW 34.5 mph 42.6 mph N/A   Clear
12:35 PM 84.2 °F 86.6 °F 66.2 °F 55% 29.76 in 10.0 mi South 24.2 mph 36.8 mph N/A   Clear
12:55 PM 84.2 °F 85.6 °F 64.4 °F 51% 29.75 in 10.0 mi SSW 31.1 mph 38.0 mph N/A   Clear
1:15 PM 84.2 °F 85.6 °F 64.4 °F 51% 29.74 in 8.0 mi South 28.8 mph 42.6 mph N/A   Clear
1:35 PM 86.0 °F 87.3 °F 64.4 °F 48% 29.73 in 10.0 mi South 29.9 mph 38.0 mph N/A   Clear
1:55 PM 86.0 °F 87.3 °F 64.4 °F 48% 29.72 in 10.0 mi South 31.1 mph 39.1 mph N/A   Clear
2:35 PM 86.0 °F 87.3 °F 64.4 °F 48% 29.71 in 10.0 mi South 26.5 mph 40.3 mph N/A   Clear
2:55 PM 86.0 °F 87.3 °F 64.4 °F 48% 29.70 in 10.0 mi South 28.8 mph 35.7 mph N/A   Clear
3:15 PM 86.0 °F 87.3 °F 64.4 °F 48% 29.70 in 10.0 mi South 32.2 mph 41.4 mph N/A   Clear
3:55 PM 86.0 °F 87.3 °F 64.4 °F 48% 29.71 in 10.0 mi South 26.5 mph 38.0 mph N/A   Clear
4:15 PM 86.0 °F 87.3 °F 64.4 °F 48% 29.71 in 10.0 mi South 25.3 mph 35.7 mph N/A   Clear
4:35 PM 86.0 °F 87.3 °F 64.4 °F 48% 29.71 in 10.0 mi South 29.9 mph 39.1 mph N/A   Clear
4:55 PM 86.0 °F 87.3 °F 64.4 °F 48% 29.71 in 10.0 mi South 28.8 mph 35.7 mph N/A   Clear
5:15 PM 86.0 °F 87.3 °F 64.4 °F 48% 29.71 in 10.0 mi South 28.8 mph 33.4 mph N/A   Clear
5:35 PM 86.0 °F 87.3 °F 64.4 °F 48% 29.71 in 10.0 mi South 28.8 mph 36.8 mph N/A   Clear
5:55 PM 84.2 °F 85.6 °F 64.4 °F 51% 29.72 in 10.0 mi South 28.8 mph 35.7 mph N/A   Clear
6:15 PM 82.4 °F 83.9 °F 64.4 °F 54% 29.72 in 10.0 mi South 25.3 mph 31.1 mph N/A   Clear
6:35 PM 82.4 °F 83.9 °F 64.4 °F 54% 29.72 in 10.0 mi South 24.2 mph - N/A   Clear
6:55 PM 80.6 °F 82.3 °F 64.4 °F 58% 29.73 in 10.0 mi South 24.2 mph 29.9 mph N/A   Clear
7:15 PM 80.6 °F 82.3 °F 64.4 °F 58% 29.74 in 10.0 mi South 17.3 mph 26.5 mph N/A   Clear
7:35 PM 80.6 °F 82.3 °F 64.4 °F 58% 29.75 in 10.0 mi South 17.3 mph - N/A   Clear
7:55 PM 78.8 °F - 64.4 °F 61% 29.76 in 10.0 mi South 16.1 mph - N/A   Clear
8:15 PM 77.0 °F - 66.2 °F 69% 29.77 in 10.0 mi SSE 16.1 mph - N/A   Clear
8:35 PM 77.0 °F - 66.2 °F 69% 29.77 in 10.0 mi SSE 15.0 mph - N/A   Clear
8:55 PM 77.0 °F - 66.2 °F 69% 29.77 in 10.0 mi SSE 18.4 mph 23.0 mph N/A   Partly Cloudy
9:15 PM 75.2 °F - 66.2 °F 73% 29.78 in 10.0 mi SSE 15.0 mph 20.7 mph N/A   Partly Cloudy
9:35 PM 75.2 °F - 66.2 °F 73% 29.78 in 10.0 mi SSE 16.1 mph - N/A   Clear
9:55 PM 75.2 °F - 66.2 °F 73% 29.78 in 10.0 mi South 15.0 mph 24.2 mph N/A   Partly Cloudy
10:15 PM 75.2 °F - 66.2 °F 73% 29.80 in 10.0 mi SSE 15.0 mph 20.7 mph N/A   Partly Cloudy
10:35 PM 73.4 °F - 66.2 °F 78% 29.79 in 10.0 mi SSE 13.8 mph - N/A   Scattered Clouds
10:55 PM 73.4 °F - 66.2 °F 78% 29.80 in 10.0 mi SSE 15.0 mph - N/A   Scattered Clouds
11:15 PM 73.4 °F - 64.4 °F 73% 29.80 in 10.0 mi SSE 16.1 mph - N/A   Partly Cloudy
11:35 PM 73.4 °F - 64.4 °F 73% 29.79 in 10.0 mi SSE 13.8 mph - N/A   Partly Cloudy
11:55 PM 71.6 °F - 64.4 °F 78% 29.80 in 10.0 mi SSE 15.0 mph - N/A   Clear